Location: Unspecified
(50.0000°N, 15.0000°E)
Time: 03:48:12
(UTC+01:00)

ISS - Pass Details

Date: 07 December 2021
Orbit: 413 x 422 km, 51.6° (Epoch: 22 January)

Event Time Altitude Azimuth Distance (km) Brightness Sun altitude
Rises 17:05:32 0° 287° (WNW) 2,386 0.9 -10.2°
Reaches altitude 10° 17:07:44 10° 279° (W) 1,516 0.1 -10.5°
Maximum altitude 17:10:53 35° 211° (SSW) 698 -2.1 -11.0°
Drops below altitude 10° 17:14:00 10° 144° (SE) 1,503 -1.1 -11.4°
Enters shadow 17:16:46 -2° 134° (SE) 2,596 0.0 -11.9°
